Salina, KS

8:54 PM CDT on April 21, 2018 (GMT -0500)
Salina Municipal

Weather History for KSLN - September, 2013

Change the Weather History Date:

Monday, September 16, 2013

  Actual Average Record
Temperature  
Mean Temperature 62 °F 70 °F  
Max Temperature 64 °F 82 °F 103 °F (1931)
Min Temperature 60 °F 58 °F 36 °F (1903)
Degree Days  
Heating Degree Days 3 1  
Month to date heating degree days 3 9  
Since 1 July heating degree days 6 10  
Cooling Degree Days 0 6  
Month to date cooling degree days 209 142  
Year to date cooling degree days 1603 1549  
Growing Degree Days 12 (Base 50)    
Moisture  
Dew Point 59 °F    
Average Humidity 88    
Maximum Humidity 97    
Minimum Humidity 78    
Precipitation  
Precipitation 0.06 in 0.08 in 0.80 in (2006)
Month to date precipitation 0.86 1.47  
Year to date precipitation 27.10 25.81  
Sea Level Pressure  
Sea Level Pressure 30.18 in    
Wind  
Wind Speed 8 mph (ENE)    
Max Wind Speed 16 mph    
Max Gust Speed 21 mph    
Visibility 5 miles    
Events Rain    
T = Trace of Precipitation, MM = Missing Value Source: NWS Daily Summary

Daily Weather History Graph

Daily Weather History Graph

Search for Another Location

Airport or City:

Astronomy

Sep. 16, 2013 Rise Set
Actual Time 7:13 AM CDT 7:36 PM CDT
Civil Twilight 6:46 AM CDT 8:03 PM CDT
Nautical Twilight 6:15 AM CDT 8:34 PM CDT
Astronomical Twilight 5:43 AM CDT 9:06 PM CDT
Moon 5:45 PM CDT (9/16) 4:02 AM CDT (9/16)
Length of Visible Light 13h 16m
Length of Day
12h 23m
Waxing Gibbous, 90% of the Moon is Illuminated
Sep 16
Waxing Gibbous
Sep 19
Full
Sep 26
Last Quarter
Oct 4
New
Oct 11
First Quarter

Hourly Weather History & Observations

Time (CDT) Temp. Dew Point Humidity Pressure Visibility Wind Dir Wind Speed Gust Speed Precip Events Conditions
12:53 AM 64.0 °F 57.0 °F 78% 30.17 in 10.0 mi NE 13.8 mph - N/A   Overcast
1:53 AM 63.0 °F 57.9 °F 84% 30.14 in 10.0 mi NE 13.8 mph - N/A   Overcast
2:53 AM 63.0 °F 57.0 °F 81% 30.15 in 10.0 mi NE 12.7 mph - N/A   Overcast
3:53 AM 62.1 °F 57.0 °F 84% 30.17 in 10.0 mi NE 9.2 mph 18.4 mph N/A   Overcast
4:22 AM 62.6 °F 57.2 °F 82% 30.20 in 10.0 mi ENE 8.1 mph - N/A   Overcast
4:53 AM 62.1 °F 57.0 °F 84% 30.16 in 10.0 mi ENE 10.4 mph 20.7 mph N/A   Overcast
5:53 AM 62.1 °F 57.0 °F 84% 30.18 in 10.0 mi NE 10.4 mph - N/A   Overcast
6:53 AM 61.0 °F 57.0 °F 87% 30.19 in 10.0 mi ENE 9.2 mph - N/A   Overcast
7:53 AM 61.0 °F 57.0 °F 87% 30.21 in 10.0 mi NE 8.1 mph - N/A   Overcast
8:53 AM 61.0 °F 57.9 °F 90% 30.22 in 4.0 mi ENE 8.1 mph - N/A   Overcast
9:40 AM 60.8 °F 57.2 °F 88% 30.24 in 4.0 mi NE 5.8 mph - 0.00 in   Overcast
9:53 AM 61.0 °F 57.9 °F 90% 30.22 in 2.0 mi NE 6.9 mph - 0.00 in Rain Light Rain
10:53 AM 61.0 °F 57.9 °F 90% 30.22 in 2.0 mi NE 9.2 mph - 0.01 in Rain Light Rain
11:51 AM 60.8 °F 57.2 °F 88% 30.23 in 4.0 mi ENE 9.2 mph - 0.01 in Rain Light Rain
11:53 AM 61.0 °F 59.0 °F 93% 30.22 in 4.0 mi East 10.4 mph - 0.01 in Rain Light Rain
12:35 PM 60.8 °F 59.0 °F 94% 30.23 in 2.5 mi ENE 8.1 mph - 0.00 in   Overcast
12:53 PM 61.0 °F 59.0 °F 93% 30.22 in 2.5 mi NE 6.9 mph - 0.00 in Rain Light Rain
1:53 PM 61.0 °F 59.0 °F 93% 30.21 in 2.0 mi NE 6.9 mph - 0.02 in Rain Light Rain
2:53 PM 62.1 °F 60.1 °F 93% 30.19 in 2.5 mi NE 8.1 mph - 0.00 in Rain Light Rain
3:53 PM 62.1 °F 60.1 °F 93% 30.18 in 2.5 mi NE 6.9 mph - 0.01 in   Overcast
4:53 PM 63.0 °F 60.1 °F 90% 30.17 in 5.0 mi NE 5.8 mph - N/A   Overcast
5:53 PM 63.0 °F 59.0 °F 87% 30.16 in 6.0 mi East 9.2 mph - N/A   Overcast
6:31 PM 62.6 °F 60.8 °F 94% 30.17 in 2.5 mi ENE 8.1 mph - N/A   Overcast
6:53 PM 62.1 °F 60.1 °F 93% 30.15 in 2.0 mi ENE 8.1 mph - N/A   Overcast
7:02 PM 62.6 °F 60.8 °F 94% 30.16 in 1.5 mi East 6.9 mph - N/A   Overcast
7:53 PM 62.1 °F 60.1 °F 93% 30.15 in 1.8 mi ENE 3.5 mph - N/A   Overcast
8:53 PM 62.1 °F 60.1 °F 93% 30.17 in 1.5 mi ENE 3.5 mph - N/A   Overcast
9:53 PM 63.0 °F 61.0 °F 93% 30.17 in 1.8 mi East 5.8 mph - 0.01 in   Overcast
10:11 PM 62.6 °F 60.8 °F 94% 30.17 in 2.0 mi ESE 6.9 mph - N/A   Overcast
10:53 PM 63.0 °F 61.0 °F 93% 30.16 in 2.0 mi East 4.6 mph - N/A   Overcast
11:27 PM 62.6 °F 60.8 °F 94% 30.18 in 1.5 mi SE 5.8 mph - N/A   Overcast
11:53 PM 63.0 °F 61.0 °F 93% 30.16 in 1.0 mi SE 5.8 mph - N/A   Overcast